Home   Weather   Adamstown   Past weeks
Flag for Pitcairn Islands

Past Weather in Adamstown, Pitcairn Islands — Yesterday and Last 2 Weeks

Now
81 °F

Overcast.


Feels Like: 86 °F
Forecast: 78 / 74 °F
Wind: 3 mph from Northwest

Location: Rikitea

Current Time: Apr 24, 2019 at 6:01:57 pm

Latest Report: Apr 24, 2019 at 5:00 pm


Visibility: 25 mi

Pressure: 29.92 "Hg

Humidity: 84%

Dew Point: 75 °F

Location of AdamstownLocation

Past Weather in Adamstown — Graph

°F

Adamstown Temperature Yesterday

Maximum temperature yesterday: 80 °F (at 11:00 am)
Minimum temperature yesterday: 73 °F (at 1:00 am)
Average temperature yesterday: 77 °F

High & Low Weather Summary for the Past Weeks

 TemperatureHumidityPressure
High83 °F (Apr 24, 2:00 pm)98% (Apr 13, 9:00 pm)30.09 "Hg (Apr 13, 9:00 pm)
Low69 °F (Apr 9, 7:00 pm)70% (Apr 10, 10:00 am)29.88 "Hg (Apr 9, 4:00 pm)
Average76 °F87%29.97 "Hg
* Reported Apr 9 4:00 pm — Apr 24 4:00 pm, Adamstown. Weather by CustomWeather, © 2019

Note: Actual official high and low records may vary slightly from our data, if they occured in-between our weather recording intervals... More about our weather records

Advertising

Adamstown Weather History for the Previous 24 Hours

Scroll right to see more
 ConditionsComfort  
Time TempWeatherWind HumidityBarometerVisibility
4:00 pm
Wed, Apr 24
81 °FOvercast.5 mph84%29.90 "Hg25 mi
3:00 pm83 °FOvercast.5 mph81%29.91 "Hg25 mi
2:00 pm83 °FOvercast.6 mph80%29.92 "Hg25 mi
1:00 pm83 °FOvercast.3 mph81%29.95 "Hg25 mi
12:00 pm83 °FOvercast.8 mph82%29.96 "Hg25 mi
11:00 am82 °FOvercast.9 mph84%29.98 "Hg25 mi
10:00 am81 °FLow clouds.7 mph86%29.99 "Hg19 mi
9:00 am80 °FOvercast.6 mph86%29.99 "Hg19 mi
8:00 am78 °FOvercast.5 mph92%29.98 "Hg19 mi
7:00 am77 °FPassing clouds.8 mph93%29.95 "Hg19 mi
6:00 am77 °FWarm.9 mph93%29.93 "HgN/A
5:00 am78 °FWarm.7 mph93%29.93 "HgN/A
4:00 am77 °FWarm.7 mph92%29.93 "HgN/A
3:00 am77 °FWarm.10 mph92%29.94 "HgN/A
2:00 am77 °FWarm.12 mph92%29.93 "HgN/A
1:00 am77 °FWarm.12 mph91%29.96 "HgN/A
12:00 am78 °FWarm.14 mph90%29.95 "HgN/A
11:00 pm
Tue, Apr 23
78 °FWarm.13 mph90%29.95 "HgN/A
10:00 pm78 °FWarm.12 mph91%29.97 "HgN/A
9:00 pm78 °FWarm.12 mph90%29.96 "HgN/A
8:00 pm78 °FWarm.12 mph91%29.95 "HgN/A
7:00 pm78 °FWarm.8 mph90%29.94 "HgN/A
6:00 pm78 °FWarm.9 mph89%29.93 "HgN/A
Weather by CustomWeather, © 2019

See weather overview